Regional Weather Roundup
Issued by NWS Jackson, KY

Home | Current Version | Previous Version | Graphics & Text | Print | Product List | Glossary On
Versions: 1 2 3 4 5 6 7 8 9 10 11 12 13 14 15 16 17 18 19 20 21 22 23 24 25 26 27 28 29 30 31 32 33 34 35 36 37 38 39 40 41 42 43 44 45 46 47 48 49 50
000
ASUS43 KJKL 221710
RWRJKL

EAST KENTUCKY HOURLY WEATHER ROUNDUP
NATIONAL WEATHER SERVICE JACKSON KY
100 PM EDT FRI SEP 22 2017

NOTE: "FAIR" INDICATES FEW OR NO CLOUDS BELOW 12,000 FEET WITH
NO SIGNIFICANT WEATHER AND/OR OBSTRUCTIONS TO VISIBILITY.

* THESE REPORTS ARE NOT UNDER NWS QUALITY CONTROL AND MAY NOT
  REPORT WEATHER SUCH AS PRECIPITATION AND FOG.

KYZ079-080-083-085-087-088-110-112-115-119-120-221800
...EASTERN KENTUCKY...

CITY           SKY/WX    TMP DP  RH WIND       PRES   REMARKS
JACKSON        SUNNY     82  65  56 VRB5      30.14F
LONDON         SUNNY     83  65  54 E7        30.12F
SOMERSET*      SUNNY     82  64  54 E6        30.11F
MONTICELLO*    SUNNY     83  69  62 VRB5G16   30.12F
WILLIAMSBURG*  SUNNY     82  66  57 NW3       30.12F
MIDDLESBORO*   SUNNY     83  65  54 CALM      30.12F
HARLAN APT*    SUNNY     82  61  47 CALM      30.13F
PIKE CO APT*     N/A     79  66  64 N6        30.14F
BIG SANDY APT* SUNNY     82  66  57 N7        30.14F
MOREHEAD APT*  PTSUNNY   84  64  51 CALM      30.14F
$$

KYZ035-036-041-042-044-050-067-078-099-221800
...CENTRAL KENTUCKY...

CITY           SKY/WX    TMP DP  RH WIND       PRES   REMARKS
MT STERLING*   MOSUNNY   82  66  57 NE5       30.14F
FLEMING/MASON* SUNNY     83  64  52 E3        30.13F
DANVILLE*      SUNNY     82  66  57 E8        30.12F
LEXINGTON      MOSUNNY   85  67  54 NE3       30.12F
FRANKFORT      SUNNY     86  65  49 CALM      30.10F
LOUISVILLE     MOSUNNY   88  67  49 NE6       30.09F HX  91
LEBANON*         N/A     84  66  54 NE3       30.11F
GLASGOW*       SUNNY     86  67  53 E7        30.09F
BOWLING GREEN  SUNNY     86  68  54 E9        30.08F
$$

KYZ091>093-OHZ055-061-077-WVZ005-015-034-035-042-221800
...SOUTHERN OHIO/WEST VIRGINIA...

CITY           SKY/WX    TMP DP  RH WIND       PRES   REMARKS
COVINGTON      MOSUNNY   87  69  54 VRB3      30.11F HX  91
COLUMBUS       MOSUNNY   86  66  51 CALM      30.11F
DAYTON         MOSUNNY   85  68  56 S3        30.12F
WILMINGTON     MOSUNNY   85  69  58 CALM      30.12F
HUNTINGTON     CLOUDY    81  67  62 N3        30.12F
CHARLESTON     MOSUNNY   81  64  56 N3        30.13F
PINEVILLE*     MOSUNNY   81  65  58 MISG      30.20S
BECKLEY        MOSUNNY   78  62  57 N8        30.18F
BLUEFIELD      MOSUNNY   77  59  53 CALM      30.20F
LOGAN CO APT*    N/A     81  66  61 N6        30.15S
$$

VAZ002-007-008-TNZ017-027-036-066-071-221800
...SOUTHWEST VIRGINIA/EAST TENNESSEE...

CITY           SKY/WX    TMP DP  RH WIND       PRES   REMARKS
WISE*          MOSUNNY   79  61  53 NE7       30.21S
JONESVILLE*      N/A     84  64  51 N3        30.14F
ABINGDON*      MOSUNNY   82  64  53 W5        30.16F
BRISTOL        MOSUNNY   83  65  54 CALM      30.13F
MORRISTOWN*    SUNNY     84  63  48 CALM      30.10F
SEVIERVILLE*   SUNNY     84  63  48 CALM      30.09F
KNOXVILLE      MOSUNNY   83  65  54 CALM      30.09F
LAFOLLETTE*    SUNNY     82  66  57 CALM      30.14F
OAK RIDGE      SUNNY     85  65  51 CALM      30.11F
CROSSVILLE     PTSUNNY   78  65  63 CALM      30.15F
NASHVILLE      MOSUNNY   87  66  49 CALM      30.07F
$$

...KEY TO REMARKS...
VSB - VISIBILITY IN MILES
WCI - WIND CHILL INDEX
HX  - HEAT INDEX

$$



USA.gov is the U.S. government's official web portal to all federal, state and local government web resources and services.